Year,Month,Day,Hour,Minute,Value (Times are PST for temperature in C)
2015,04,25,00,00,4.30
2015,04,25,00,01,4.30
2015,04,25,00,02,4.30
2015,04,25,00,03,4.30
2015,04,25,00,04,4.30
2015,04,25,00,05,4.30
2015,04,25,00,06,4.30
2015,04,25,00,07,4.30
2015,04,25,00,08,4.30
2015,04,25,00,09,4.30
2015,04,25,00,10,4.20
2015,04,25,00,11,4.20
2015,04,25,00,12,4.20
2015,04,25,00,13,4.20
2015,04,25,00,14,4.10
2015,04,25,00,15,4.10
2015,04,25,00,16,4.10
2015,04,25,00,17,4.00
2015,04,25,00,18,4.00
2015,04,25,00,19,4.00
2015,04,25,00,20,3.90
2015,04,25,00,21,3.90
2015,04,25,00,22,3.90
2015,04,25,00,23,3.80
2015,04,25,00,24,3.80
2015,04,25,00,25,3.80
2015,04,25,00,26,3.80
2015,04,25,00,27,3.80
2015,04,25,00,28,3.70
2015,04,25,00,29,3.70
2015,04,25,00,30,3.70
2015,04,25,00,31,3.70
2015,04,25,00,32,3.70
2015,04,25,00,33,3.70
2015,04,25,00,34,3.60
2015,04,25,00,35,3.60
2015,04,25,00,36,3.60
2015,04,25,00,37,3.60
2015,04,25,00,38,3.50
2015,04,25,00,39,3.50
2015,04,25,00,40,3.50
2015,04,25,00,41,3.40
2015,04,25,00,42,3.40
2015,04,25,00,43,3.40
2015,04,25,00,44,3.40
2015,04,25,00,45,3.40
2015,04,25,00,46,3.40
2015,04,25,00,47,3.40
2015,04,25,00,48,3.40
2015,04,25,00,49,3.40
2015,04,25,00,50,3.40
2015,04,25,00,51,3.40
2015,04,25,00,52,3.40
2015,04,25,00,53,3.30
2015,04,25,00,54,3.30
2015,04,25,00,55,3.30
2015,04,25,00,56,3.30
2015,04,25,00,57,3.30
2015,04,25,00,58,3.30
2015,04,25,00,59,3.30
2015,04,25,01,00,3.30
2015,04,25,01,01,3.30
2015,04,25,01,02,3.20
2015,04,25,01,03,3.20
2015,04,25,01,04,3.20
2015,04,25,01,05,3.20
2015,04,25,01,06,3.10
2015,04,25,01,07,3.10
2015,04,25,01,08,3.10
2015,04,25,01,09,3.00
2015,04,25,01,10,3.00
2015,04,25,01,11,2.90
2015,04,25,01,12,2.90
2015,04,25,01,13,2.90
2015,04,25,01,14,2.90
2015,04,25,01,15,2.90
2015,04,25,01,16,2.90
2015,04,25,01,17,2.80
2015,04,25,01,18,2.80
2015,04,25,01,19,2.80
2015,04,25,01,20,2.80
2015,04,25,01,21,2.80
2015,04,25,01,22,2.80
2015,04,25,01,23,2.80
2015,04,25,01,24,2.80
2015,04,25,01,25,2.80
2015,04,25,01,26,2.80
2015,04,25,01,27,2.80
2015,04,25,01,28,2.80
2015,04,25,01,29,2.80
2015,04,25,01,30,2.80
2015,04,25,01,31,2.80
2015,04,25,01,32,2.80
2015,04,25,01,33,2.80
2015,04,25,01,34,2.80
2015,04,25,01,35,2.80
2015,04,25,01,36,2.80
2015,04,25,01,37,2.70
2015,04,25,01,38,2.70
2015,04,25,01,39,2.70
2015,04,25,01,40,2.60
2015,04,25,01,41,2.60
2015,04,25,01,42,2.60
2015,04,25,01,43,2.60
2015,04,25,01,44,2.60
2015,04,25,01,45,2.60
2015,04,25,01,46,2.60
2015,04,25,01,47,2.50
2015,04,25,01,48,2.50
2015,04,25,01,49,2.50
2015,04,25,01,50,2.50
2015,04,25,01,51,2.40
2015,04,25,01,52,2.40
2015,04,25,01,53,2.40
2015,04,25,01,54,2.40
2015,04,25,01,55,2.30
2015,04,25,01,56,2.30
2015,04,25,01,57,2.30
2015,04,25,01,58,2.30
2015,04,25,01,59,2.30
2015,04,25,02,00,2.30
2015,04,25,02,01,2.30
2015,04,25,02,02,2.30
2015,04,25,02,03,2.30
2015,04,25,02,04,2.30
2015,04,25,02,05,2.30
2015,04,25,02,06,2.30
2015,04,25,02,07,2.30
2015,04,25,02,08,2.40
2015,04,25,02,09,2.40
2015,04,25,02,10,2.40
2015,04,25,02,11,2.40
2015,04,25,02,12,2.40
2015,04,25,02,13,2.40
2015,04,25,02,14,2.40
2015,04,25,02,15,2.40
2015,04,25,02,16,2.30
2015,04,25,02,17,2.30
2015,04,25,02,18,2.30
2015,04,25,02,19,2.30
2015,04,25,02,20,2.30
2015,04,25,02,21,2.30
2015,04,25,02,22,2.30
2015,04,25,02,23,2.30
2015,04,25,02,24,2.30
2015,04,25,02,25,2.30
2015,04,25,02,26,2.30
2015,04,25,02,27,2.30
2015,04,25,02,28,2.30
2015,04,25,02,29,2.30
2015,04,25,02,30,2.30
2015,04,25,02,31,2.30
2015,04,25,02,32,2.20
2015,04,25,02,33,2.20
2015,04,25,02,34,2.20
2015,04,25,02,35,2.10
2015,04,25,02,36,2.10
2015,04,25,02,37,2.10
2015,04,25,02,38,2.10
2015,04,25,02,39,2.10
2015,04,25,02,40,2.10
2015,04,25,02,41,2.10
2015,04,25,02,42,2.10
2015,04,25,02,43,2.10
2015,04,25,02,44,2.10
2015,04,25,02,45,2.10
2015,04,25,02,46,2.10
2015,04,25,02,47,2.10
2015,04,25,02,48,2.10
2015,04,25,02,49,2.00
2015,04,25,02,50,2.10
2015,04,25,02,51,2.10
2015,04,25,02,52,2.10
2015,04,25,02,53,2.10
2015,04,25,02,54,2.10
2015,04,25,02,55,2.10
2015,04,25,02,56,2.20
2015,04,25,02,57,2.20
2015,04,25,02,58,2.20
2015,04,25,02,59,2.20
2015,04,25,03,00,2.30
2015,04,25,03,01,2.30
2015,04,25,03,02,2.30
2015,04,25,03,03,2.30
2015,04,25,03,04,2.30
2015,04,25,03,05,2.40
2015,04,25,03,06,2.40
2015,04,25,03,07,2.40
2015,04,25,03,08,2.40
2015,04,25,03,09,2.50
2015,04,25,03,10,2.50
2015,04,25,03,11,2.60
2015,04,25,03,12,2.60
2015,04,25,03,13,2.60
2015,04,25,03,14,2.60
2015,04,25,03,15,2.70
2015,04,25,03,16,2.70
2015,04,25,03,17,2.70
2015,04,25,03,18,2.70
2015,04,25,03,19,2.70
2015,04,25,03,20,2.80
2015,04,25,03,21,2.80
2015,04,25,03,22,2.80
2015,04,25,03,23,2.80
2015,04,25,03,24,2.80
2015,04,25,03,25,2.80
2015,04,25,03,26,2.80
2015,04,25,03,27,2.80
2015,04,25,03,28,2.80
2015,04,25,03,29,2.80
2015,04,25,03,30,2.80
2015,04,25,03,31,2.80
2015,04,25,03,32,2.80
2015,04,25,03,33,2.90
2015,04,25,03,34,2.90
2015,04,25,03,35,2.90
2015,04,25,03,36,2.90
2015,04,25,03,37,2.90
2015,04,25,03,38,2.90
2015,04,25,03,39,2.90
2015,04,25,03,40,2.90
2015,04,25,03,41,2.90
2015,04,25,03,42,2.90
2015,04,25,03,43,3.00
2015,04,25,03,44,3.00
2015,04,25,03,45,3.00
2015,04,25,03,46,3.10
2015,04,25,03,47,3.10
2015,04,25,03,48,3.10
2015,04,25,03,49,3.20
2015,04,25,03,50,3.20
2015,04,25,03,51,3.20
2015,04,25,03,52,3.20
2015,04,25,03,53,3.30
2015,04,25,03,54,3.30
2015,04,25,03,55,3.30
2015,04,25,03,56,3.30
2015,04,25,03,57,3.30
2015,04,25,03,58,3.30
2015,04,25,03,59,3.30
2015,04,25,04,00,3.30
2015,04,25,04,01,3.30
2015,04,25,04,02,3.40
2015,04,25,04,03,3.40
2015,04,25,04,04,3.40
2015,04,25,04,05,3.40
2015,04,25,04,06,3.40
2015,04,25,04,07,3.40
2015,04,25,04,08,3.40
2015,04,25,04,09,3.50
2015,04,25,04,10,3.50
2015,04,25,04,11,3.50
2015,04,25,04,12,3.50
2015,04,25,04,13,3.60
2015,04,25,04,14,3.60
2015,04,25,04,15,3.60
2015,04,25,04,16,3.60
2015,04,25,04,17,3.60
2015,04,25,04,18,3.60
2015,04,25,04,19,3.60
2015,04,25,04,20,3.70
2015,04,25,04,21,3.70
2015,04,25,04,22,3.70
2015,04,25,04,23,3.70
2015,04,25,04,24,3.70
2015,04,25,04,25,3.70
2015,04,25,04,26,3.70
2015,04,25,04,27,3.80
2015,04,25,04,28,3.80
2015,04,25,04,29,3.80
2015,04,25,04,30,3.80
2015,04,25,04,31,3.80
2015,04,25,04,32,3.70
2015,04,25,04,33,3.70
2015,04,25,04,34,3.70
2015,04,25,04,35,3.70
2015,04,25,04,36,3.70
2015,04,25,04,37,3.70
2015,04,25,04,38,3.70
2015,04,25,04,39,3.70
2015,04,25,04,40,3.70
2015,04,25,04,41,3.70
2015,04,25,04,42,3.70
2015,04,25,04,43,3.80
2015,04,25,04,44,3.80
2015,04,25,04,45,3.80
2015,04,25,04,46,3.80
2015,04,25,04,47,3.80
2015,04,25,04,48,3.80
2015,04,25,04,49,3.80
2015,04,25,04,50,3.80
2015,04,25,04,51,3.80
2015,04,25,04,52,3.80
2015,04,25,04,53,3.80
2015,04,25,04,54,3.80
2015,04,25,04,55,3.80
2015,04,25,04,56,3.80
2015,04,25,04,57,3.80
2015,04,25,04,58,3.80
2015,04,25,04,59,3.80
2015,04,25,05,00,3.80
2015,04,25,05,01,3.80
2015,04,25,05,02,3.80
2015,04,25,05,03,3.80
2015,04,25,05,04,3.80
2015,04,25,05,05,3.80
2015,04,25,05,06,3.80
2015,04,25,05,07,3.80
2015,04,25,05,08,3.80
2015,04,25,05,09,3.80
2015,04,25,05,10,3.80
2015,04,25,05,11,3.80
2015,04,25,05,12,3.80
2015,04,25,05,13,3.80
2015,04,25,05,14,3.80
2015,04,25,05,15,3.80
2015,04,25,05,16,3.80
2015,04,25,05,17,3.80
2015,04,25,05,18,3.90
2015,04,25,05,19,3.90
2015,04,25,05,20,3.90
2015,04,25,05,21,3.90
2015,04,25,05,22,3.90
2015,04,25,05,23,3.90
2015,04,25,05,24,3.90
2015,04,25,05,25,3.90
2015,04,25,05,26,3.90
2015,04,25,05,27,3.90
2015,04,25,05,28,3.90
2015,04,25,05,29,3.90
2015,04,25,05,30,3.90
2015,04,25,05,31,3.90
2015,04,25,05,32,3.90
2015,04,25,05,33,3.90
2015,04,25,05,34,4.00
2015,04,25,05,35,4.00
2015,04,25,05,36,4.00
2015,04,25,05,37,4.00
2015,04,25,05,38,4.00
2015,04,25,05,39,4.00
2015,04,25,05,40,4.10
2015,04,25,05,41,4.10
2015,04,25,05,42,4.10
2015,04,25,05,43,4.10
2015,04,25,05,44,4.10
2015,04,25,05,45,4.10
2015,04,25,05,46,4.20
2015,04,25,05,47,4.20
2015,04,25,05,48,4.20
2015,04,25,05,49,4.20
2015,04,25,05,50,4.20
2015,04,25,05,51,4.20
2015,04,25,05,52,4.20
2015,04,25,05,53,4.20
2015,04,25,05,54,4.20
2015,04,25,05,55,4.20
2015,04,25,05,56,4.20
2015,04,25,05,57,4.20
2015,04,25,05,58,4.10
2015,04,25,05,59,4.10
2015,04,25,06,00,4.10
2015,04,25,06,01,4.10
2015,04,25,06,02,4.10
2015,04,25,06,03,4.10
2015,04,25,06,04,4.10
2015,04,25,06,05,4.10
2015,04,25,06,06,4.10
2015,04,25,06,07,4.10
2015,04,25,06,08,4.20
2015,04,25,06,09,4.20
2015,04,25,06,10,4.20
2015,04,25,06,11,4.20
2015,04,25,06,12,4.20
2015,04,25,06,13,4.20
2015,04,25,06,14,4.30
2015,04,25,06,15,4.30
2015,04,25,06,16,4.30
2015,04,25,06,17,4.30
2015,04,25,06,18,4.30
2015,04,25,06,19,4.30
2015,04,25,06,20,4.30
2015,04,25,06,21,4.30
2015,04,25,06,22,4.30
2015,04,25,06,23,4.30
2015,04,25,06,24,4.30
2015,04,25,06,25,4.30
2015,04,25,06,26,4.30
2015,04,25,06,27,4.30
2015,04,25,06,28,4.30
2015,04,25,06,29,4.30
2015,04,25,06,30,4.30
2015,04,25,06,31,4.30
2015,04,25,06,32,4.30
2015,04,25,06,33,4.30
2015,04,25,06,34,4.30
2015,04,25,06,35,4.30
2015,04,25,06,36,4.30
2015,04,25,06,37,4.30
2015,04,25,06,38,4.30
2015,04,25,06,39,4.40
2015,04,25,06,40,4.40
2015,04,25,06,41,4.40
2015,04,25,06,42,4.40
2015,04,25,06,43,4.40
2015,04,25,06,44,4.40
2015,04,25,06,45,4.40
2015,04,25,06,46,4.40
2015,04,25,06,47,4.40
2015,04,25,06,48,4.40
2015,04,25,06,49,4.50
2015,04,25,06,50,4.50
2015,04,25,06,51,4.50
2015,04,25,06,52,4.50
2015,04,25,06,53,4.50
2015,04,25,06,54,4.50
2015,04,25,06,55,4.60
2015,04,25,06,56,4.60
2015,04,25,06,57,4.60
2015,04,25,06,58,4.60
2015,04,25,06,59,4.60
2015,04,25,07,00,4.60
2015,04,25,07,01,4.60
2015,04,25,07,02,4.70
2015,04,25,07,03,4.70
2015,04,25,07,04,4.70
2015,04,25,07,05,4.70
2015,04,25,07,06,4.70
2015,04,25,07,07,4.80
2015,04,25,07,08,4.80
2015,04,25,07,09,4.80
2015,04,25,07,10,4.80
2015,04,25,07,11,4.90
2015,04,25,07,12,4.90
2015,04,25,07,13,4.90
2015,04,25,07,14,5.00
2015,04,25,07,15,5.00
2015,04,25,07,16,5.10
2015,04,25,07,17,5.10
2015,04,25,07,18,5.10
2015,04,25,07,19,5.20
2015,04,25,07,20,5.20
2015,04,25,07,21,5.20
2015,04,25,07,22,5.30
2015,04,25,07,23,5.30
2015,04,25,07,24,5.30
2015,04,25,07,25,5.40
2015,04,25,07,26,5.40
2015,04,25,07,27,5.40
2015,04,25,07,28,5.40
2015,04,25,07,29,5.50
2015,04,25,07,30,5.60
2015,04,25,07,31,5.60
2015,04,25,07,32,5.60
2015,04,25,07,33,5.60
2015,04,25,07,34,5.70
2015,04,25,07,35,5.70
2015,04,25,07,36,5.80
2015,04,25,07,37,5.80
2015,04,25,07,38,5.90
2015,04,25,07,39,5.90
2015,04,25,07,40,5.90
2015,04,25,07,41,6.00
2015,04,25,07,42,6.00
2015,04,25,07,43,6.10
2015,04,25,07,44,6.10
2015,04,25,07,45,6.10
2015,04,25,07,46,6.20
2015,04,25,07,47,6.20
2015,04,25,07,48,6.20
2015,04,25,07,49,6.20
2015,04,25,07,50,6.10
2015,04,25,07,51,6.10
2015,04,25,07,52,6.10
2015,04,25,07,53,6.10
2015,04,25,07,54,6.10
2015,04,25,07,55,6.00
2015,04,25,07,56,6.00
2015,04,25,07,57,6.00
2015,04,25,07,58,6.00
2015,04,25,07,59,6.10
2015,04,25,08,00,6.10
2015,04,25,08,01,6.10
2015,04,25,08,02,6.20
2015,04,25,08,03,6.20
2015,04,25,08,04,6.20
2015,04,25,08,05,6.20
2015,04,25,08,06,6.30
2015,04,25,08,07,6.30
2015,04,25,08,08,6.30
2015,04,25,08,09,6.30
2015,04,25,08,10,6.30
2015,04,25,08,11,6.30
2015,04,25,08,12,6.30
2015,04,25,08,13,6.40
2015,04,25,08,14,6.40
2015,04,25,08,15,6.40
2015,04,25,08,16,6.50
2015,04,25,08,17,6.50
2015,04,25,08,18,6.50
2015,04,25,08,19,6.60
2015,04,25,08,20,6.60
2015,04,25,08,21,6.60
2015,04,25,08,22,6.60
2015,04,25,08,23,6.60
2015,04,25,08,24,6.70
2015,04,25,08,25,6.70
2015,04,25,08,26,6.70
2015,04,25,08,27,6.80
2015,04,25,08,28,6.80
2015,04,25,08,29,6.80
2015,04,25,08,30,6.80
2015,04,25,08,31,6.80
2015,04,25,08,32,6.80
2015,04,25,08,33,6.80
2015,04,25,08,34,6.80
2015,04,25,08,35,6.80
2015,04,25,08,36,6.80
2015,04,25,08,37,6.80
2015,04,25,08,38,6.80
2015,04,25,08,39,6.90
2015,04,25,08,40,6.80
2015,04,25,08,41,6.90
2015,04,25,08,42,6.90
2015,04,25,08,43,6.90
2015,04,25,08,44,6.90
2015,04,25,08,45,6.90
2015,04,25,08,46,6.90
2015,04,25,08,47,7.00
2015,04,25,08,48,7.00
2015,04,25,08,49,7.00
2015,04,25,08,50,7.00
2015,04,25,08,51,7.00
2015,04,25,08,52,7.10
2015,04,25,08,53,7.10
2015,04,25,08,54,7.10
2015,04,25,08,55,7.10
2015,04,25,08,56,7.10
2015,04,25,08,57,7.10
2015,04,25,08,58,7.20
2015,04,25,08,59,7.20
2015,04,25,09,00,7.20
2015,04,25,09,01,7.20
2015,04,25,09,02,7.20
2015,04,25,09,03,7.30
2015,04,25,09,04,7.30
2015,04,25,09,05,7.30
2015,04,25,09,06,7.30
2015,04,25,09,07,7.40
2015,04,25,09,08,7.40
2015,04,25,09,09,7.40
2015,04,25,09,10,7.40
2015,04,25,09,11,7.40
2015,04,25,09,12,7.40
2015,04,25,09,13,7.50
2015,04,25,09,14,7.50
2015,04,25,09,15,7.40
2015,04,25,09,16,7.50
2015,04,25,09,17,7.50
2015,04,25,09,18,7.50
2015,04,25,09,19,7.50
2015,04,25,09,20,7.50
2015,04,25,09,21,7.50
2015,04,25,09,22,7.60
2015,04,25,09,23,7.60
2015,04,25,09,24,7.60
2015,04,25,09,25,7.60
2015,04,25,09,26,7.60
2015,04,25,09,27,7.60
2015,04,25,09,28,7.60
2015,04,25,09,29,7.70
2015,04,25,09,30,7.70
2015,04,25,09,31,7.70
2015,04,25,09,32,7.70
2015,04,25,09,33,7.70
2015,04,25,09,34,7.70
2015,04,25,09,35,7.70
2015,04,25,09,36,7.70
2015,04,25,09,37,7.70
2015,04,25,09,38,7.70
2015,04,25,09,39,7.80
2015,04,25,09,40,7.80
2015,04,25,09,41,7.70
2015,04,25,09,42,7.70
2015,04,25,09,43,7.70
2015,04,25,09,44,7.70
2015,04,25,09,45,7.70
2015,04,25,09,46,7.70
2015,04,25,09,47,7.80
2015,04,25,09,48,7.80
2015,04,25,09,49,7.80
2015,04,25,09,50,7.80
2015,04,25,09,51,7.80
2015,04,25,09,52,7.80
2015,04,25,09,53,7.80
2015,04,25,09,54,7.80
2015,04,25,09,55,7.80
2015,04,25,09,56,7.80
2015,04,25,09,57,7.90
2015,04,25,09,58,7.90
2015,04,25,09,59,7.90
2015,04,25,10,00,7.90
2015,04,25,10,01,7.90
2015,04,25,10,02,7.90
2015,04,25,10,03,7.90
2015,04,25,10,04,7.90
2015,04,25,10,05,7.90
2015,04,25,10,06,7.90
2015,04,25,10,07,8.00
2015,04,25,10,08,8.00
2015,04,25,10,09,8.00
2015,04,25,10,10,8.00
2015,04,25,10,11,8.00
2015,04,25,10,12,8.10
2015,04,25,10,13,8.10
2015,04,25,10,14,8.10
2015,04,25,10,15,8.10
2015,04,25,10,16,8.10
2015,04,25,10,17,8.10
2015,04,25,10,18,8.10
2015,04,25,10,19,8.20
2015,04,25,10,20,8.20
2015,04,25,10,21,8.20
2015,04,25,10,22,8.20
2015,04,25,10,23,8.20
2015,04,25,10,24,8.30
2015,04,25,10,25,8.30
2015,04,25,10,26,8.30
2015,04,25,10,27,8.30
2015,04,25,10,28,8.30
2015,04,25,10,29,8.30
2015,04,25,10,30,8.30
2015,04,25,10,31,8.30
2015,04,25,10,32,8.40
2015,04,25,10,33,8.40
2015,04,25,10,34,8.40
2015,04,25,10,35,8.40
2015,04,25,10,36,8.50
2015,04,25,10,37,8.60
2015,04,25,10,38,8.50
2015,04,25,10,39,8.50
2015,04,25,10,40,8.50
2015,04,25,10,41,8.50
2015,04,25,10,42,8.50
2015,04,25,10,43,8.50
2015,04,25,10,44,8.50
2015,04,25,10,45,8.60
2015,04,25,10,46,8.60
2015,04,25,10,47,8.60
2015,04,25,10,48,8.60
2015,04,25,10,49,8.70
2015,04,25,10,50,8.70
2015,04,25,10,51,8.70
2015,04,25,10,52,8.80
2015,04,25,10,53,8.80
2015,04,25,10,54,8.80
2015,04,25,10,55,8.80
2015,04,25,10,56,8.80
2015,04,25,10,57,8.80
2015,04,25,10,58,8.80
2015,04,25,10,59,8.80
2015,04,25,11,00,8.80
2015,04,25,11,01,8.80
2015,04,25,11,02,8.70
2015,04,25,11,03,8.70
2015,04,25,11,04,8.70
2015,04,25,11,05,8.70
2015,04,25,11,06,8.70
2015,04,25,11,07,8.70
2015,04,25,11,08,8.70
2015,04,25,11,09,8.80
2015,04,25,11,10,8.80
2015,04,25,11,11,8.90
2015,04,25,11,12,8.90
2015,04,25,11,13,8.90
2015,04,25,11,14,8.90
2015,04,25,11,15,8.90
2015,04,25,11,16,8.90
2015,04,25,11,17,8.90
2015,04,25,11,18,8.90
2015,04,25,11,19,8.90
2015,04,25,11,20,8.90
2015,04,25,11,21,8.90
2015,04,25,11,22,9.00
2015,04,25,11,23,9.00
2015,04,25,11,24,9.00
2015,04,25,11,25,9.00
2015,04,25,11,26,9.00
2015,04,25,11,27,9.00
2015,04,25,11,28,9.00
2015,04,25,11,29,9.00
2015,04,25,11,30,9.10
2015,04,25,11,31,9.10
2015,04,25,11,32,9.10
2015,04,25,11,33,9.10
2015,04,25,11,34,9.10
2015,04,25,11,35,9.20
2015,04,25,11,36,9.20
2015,04,25,11,37,9.20
2015,04,25,11,38,9.20
2015,04,25,11,39,9.20
2015,04,25,11,40,9.20
2015,04,25,11,41,9.30
2015,04,25,11,42,9.30
2015,04,25,11,43,9.30
2015,04,25,11,44,9.40
2015,04,25,11,45,9.40
2015,04,25,11,46,9.40
2015,04,25,11,47,9.50
2015,04,25,11,48,9.60
2015,04,25,11,49,9.70
2015,04,25,11,50,9.70
2015,04,25,11,51,9.70
2015,04,25,11,52,9.80
2015,04,25,11,53,9.90
2015,04,25,11,54,9.90
2015,04,25,11,55,10.00
2015,04,25,11,56,10.10
2015,04,25,11,57,10.20
2015,04,25,11,58,10.30
2015,04,25,11,59,10.30
2015,04,25,12,00,10.30
2015,04,25,12,01,10.30
2015,04,25,12,02,10.30
2015,04,25,12,03,10.30
2015,04,25,12,04,10.40
2015,04,25,12,05,10.50
2015,04,25,12,06,10.60
2015,04,25,12,07,10.60
2015,04,25,12,08,10.60
2015,04,25,12,09,10.60
2015,04,25,12,10,10.60
2015,04,25,12,11,10.60
2015,04,25,12,12,10.60
2015,04,25,12,13,10.70
2015,04,25,12,14,10.70
2015,04,25,12,15,10.70
2015,04,25,12,16,10.70
2015,04,25,12,17,10.70
2015,04,25,12,18,10.60
2015,04,25,12,19,10.60
2015,04,25,12,20,10.60
2015,04,25,12,21,10.70
2015,04,25,12,22,10.70
2015,04,25,12,23,10.80
2015,04,25,12,24,10.70
2015,04,25,12,25,10.70
2015,04,25,12,26,10.70
2015,04,25,12,27,10.70
2015,04,25,12,28,10.70
2015,04,25,12,29,10.70
2015,04,25,12,30,10.70
2015,04,25,12,31,10.70
2015,04,25,12,32,10.70
2015,04,25,12,33,10.70
2015,04,25,12,34,10.70
2015,04,25,12,35,10.60
2015,04,25,12,36,10.60
2015,04,25,12,37,10.70
2015,04,25,12,38,10.70
2015,04,25,12,39,10.70
2015,04,25,12,40,10.70
2015,04,25,12,41,10.80
2015,04,25,12,42,10.70
2015,04,25,12,43,10.80
2015,04,25,12,44,10.80
2015,04,25,12,45,10.80
2015,04,25,12,46,10.90
2015,04,25,12,47,10.90
2015,04,25,12,48,11.00
2015,04,25,12,49,11.00
2015,04,25,12,50,11.10
2015,04,25,12,51,11.20
2015,04,25,12,52,11.30
2015,04,25,12,53,11.30
2015,04,25,12,54,11.30
2015,04,25,12,55,11.30
2015,04,25,12,56,11.30
2015,04,25,12,57,11.30
2015,04,25,12,58,11.30
2015,04,25,12,59,11.20
2015,04,25,13,00,11.20
2015,04,25,13,01,11.00
2015,04,25,13,02,10.80
2015,04,25,13,03,10.70
2015,04,25,13,04,10.70
2015,04,25,13,05,10.60
2015,04,25,13,06,10.60
2015,04,25,13,07,10.60
2015,04,25,13,08,10.60
2015,04,25,13,09,10.50
2015,04,25,13,10,10.40
2015,04,25,13,11,10.40
2015,04,25,13,12,10.40
2015,04,25,13,13,10.40
2015,04,25,13,14,10.40
2015,04,25,13,15,10.30
2015,04,25,13,16,10.20
2015,04,25,13,17,10.10
2015,04,25,13,18,10.00
2015,04,25,13,19,10.00
2015,04,25,13,20,9.90
2015,04,25,13,21,9.90
2015,04,25,13,22,9.90
2015,04,25,13,23,10.00
2015,04,25,13,24,10.00
2015,04,25,13,25,9.90
2015,04,25,13,26,9.90
2015,04,25,13,27,9.90
2015,04,25,13,28,9.90
2015,04,25,13,29,9.80
2015,04,25,13,30,9.80
2015,04,25,13,31,9.70
2015,04,25,13,32,9.70
2015,04,25,13,33,9.70
2015,04,25,13,34,9.70
2015,04,25,13,35,9.70
2015,04,25,13,36,9.70
2015,04,25,13,37,9.70
2015,04,25,13,38,9.70
2015,04,25,13,39,9.50
2015,04,25,13,40,9.30
2015,04,25,13,41,9.20
2015,04,25,13,42,9.10
2015,04,25,13,43,9.00
2015,04,25,13,44,9.00
2015,04,25,13,45,9.00
2015,04,25,13,46,9.00
2015,04,25,13,47,9.00
2015,04,25,13,48,9.00
2015,04,25,13,49,9.10
2015,04,25,13,50,9.10
2015,04,25,13,51,9.20
2015,04,25,13,52,9.20
2015,04,25,13,53,9.20
2015,04,25,13,54,9.30
2015,04,25,13,55,9.30
2015,04,25,13,56,9.30
2015,04,25,13,57,9.30
2015,04,25,13,58,9.30
2015,04,25,13,59,9.30
2015,04,25,14,00,9.30
2015,04,25,14,01,9.30
2015,04,25,14,02,9.30
2015,04,25,14,03,9.30
2015,04,25,14,04,9.30
2015,04,25,14,05,9.30
2015,04,25,14,06,9.30
2015,04,25,14,07,9.30
2015,04,25,14,08,9.30
2015,04,25,14,09,9.20
2015,04,25,14,10,9.20
2015,04,25,14,11,9.20
2015,04,25,14,12,9.20
2015,04,25,14,13,9.20
2015,04,25,14,14,9.10
2015,04,25,14,15,9.10
2015,04,25,14,16,9.10
2015,04,25,14,17,9.10
2015,04,25,14,18,9.00
2015,04,25,14,19,9.00
2015,04,25,14,20,9.00
2015,04,25,14,21,9.00
2015,04,25,14,22,9.00
2015,04,25,14,23,9.00
2015,04,25,14,24,8.90
2015,04,25,14,25,8.90
2015,04,25,14,26,8.90
2015,04,25,14,27,8.80
2015,04,25,14,28,8.80
2015,04,25,14,29,8.70
2015,04,25,14,30,8.70
2015,04,25,14,31,8.70
2015,04,25,14,32,8.70
2015,04,25,14,33,8.80
2015,04,25,14,34,8.80
2015,04,25,14,35,8.90
2015,04,25,14,36,9.00
2015,04,25,14,37,9.10
2015,04,25,14,38,9.20
2015,04,25,14,39,9.20
2015,04,25,14,40,9.30
2015,04,25,14,41,9.40
2015,04,25,14,42,9.50
2015,04,25,14,43,9.50
2015,04,25,14,44,9.60
2015,04,25,14,45,9.60
2015,04,25,14,46,9.50
2015,04,25,14,47,9.40
2015,04,25,14,48,9.40
2015,04,25,14,49,9.40
2015,04,25,14,50,9.40
2015,04,25,14,51,9.40
2015,04,25,14,52,9.50
2015,04,25,14,53,9.60
2015,04,25,14,54,9.70
2015,04,25,14,55,9.70
2015,04,25,14,56,9.70
2015,04,25,14,57,9.70
2015,04,25,14,58,9.80
2015,04,25,14,59,9.80
2015,04,25,15,00,9.80
2015,04,25,15,01,9.90
2015,04,25,15,02,10.00
2015,04,25,15,03,10.10
2015,04,25,15,04,10.20
2015,04,25,15,05,10.30
2015,04,25,15,06,10.40
2015,04,25,15,07,10.50
2015,04,25,15,08,10.60
2015,04,25,15,09,10.60
2015,04,25,15,10,10.60
2015,04,25,15,11,10.60
2015,04,25,15,12,10.60
2015,04,25,15,13,10.60
2015,04,25,15,14,10.70
2015,04,25,15,15,10.80
2015,04,25,15,16,10.80
2015,04,25,15,17,10.90
2015,04,25,15,18,10.90
2015,04,25,15,19,10.90
2015,04,25,15,20,10.90
2015,04,25,15,21,10.90
2015,04,25,15,22,10.90
2015,04,25,15,23,10.90
2015,04,25,15,24,11.00
2015,04,25,15,25,11.00
2015,04,25,15,26,11.00
2015,04,25,15,27,11.00
2015,04,25,15,28,10.90
2015,04,25,15,29,10.90
2015,04,25,15,30,11.00
2015,04,25,15,31,11.00
2015,04,25,15,32,11.10
2015,04,25,15,33,11.10
2015,04,25,15,34,11.10
2015,04,25,15,35,11.10
2015,04,25,15,36,11.10
2015,04,25,15,37,11.10
2015,04,25,15,38,11.20
2015,04,25,15,39,11.20
2015,04,25,15,40,11.20
2015,04,25,15,41,11.20
2015,04,25,15,42,11.20
2015,04,25,15,43,11.30
2015,04,25,15,44,11.30
2015,04,25,15,45,11.30
2015,04,25,15,46,11.30
2015,04,25,15,47,11.30
2015,04,25,15,48,11.30
2015,04,25,15,49,11.30
2015,04,25,15,50,11.30
2015,04,25,15,51,11.30
2015,04,25,15,52,11.40
2015,04,25,15,53,11.40
2015,04,25,15,54,11.40
2015,04,25,15,55,11.40
2015,04,25,15,56,11.50
2015,04,25,15,57,11.50
2015,04,25,15,58,11.40
2015,04,25,15,59,11.40
2015,04,25,16,00,11.30
2015,04,25,16,01,11.20
2015,04,25,16,02,11.20
2015,04,25,16,03,11.10
2015,04,25,16,04,10.90
2015,04,25,16,05,10.80
2015,04,25,16,06,10.60
2015,04,25,16,07,10.60
2015,04,25,16,08,10.50
2015,04,25,16,09,10.50
2015,04,25,16,10,10.50
2015,04,25,16,11,10.50
2015,04,25,16,12,10.40
2015,04,25,16,13,10.40
2015,04,25,16,14,10.40
2015,04,25,16,15,10.50
2015,04,25,16,16,10.50
2015,04,25,16,17,10.50
2015,04,25,16,18,10.60
2015,04,25,16,19,10.60
2015,04,25,16,20,10.70
2015,04,25,16,21,10.80
2015,04,25,16,22,10.80
2015,04,25,16,23,10.90
2015,04,25,16,24,11.00
2015,04,25,16,25,11.10
2015,04,25,16,26,11.20
2015,04,25,16,27,11.30
2015,04,25,16,28,11.40
2015,04,25,16,29,11.40
2015,04,25,16,30,11.40
2015,04,25,16,31,11.50
2015,04,25,16,32,11.50
2015,04,25,16,33,11.60
2015,04,25,16,34,11.60
2015,04,25,16,35,11.60
2015,04,25,16,36,11.60
2015,04,25,16,37,11.50
2015,04,25,16,38,11.40
2015,04,25,16,39,11.40
2015,04,25,16,40,11.30
2015,04,25,16,41,11.30
2015,04,25,16,42,11.20
2015,04,25,16,43,11.20
2015,04,25,16,44,11.20
2015,04,25,16,45,11.30
2015,04,25,16,46,11.30
2015,04,25,16,47,11.30
2015,04,25,16,48,11.40
2015,04,25,16,49,11.50
2015,04,25,16,50,11.70
2015,04,25,16,51,11.70
2015,04,25,16,52,11.70
2015,04,25,16,53,11.60
2015,04,25,16,54,11.50
2015,04,25,16,55,11.40
2015,04,25,16,56,11.30
2015,04,25,16,57,11.30
2015,04,25,16,58,11.40
2015,04,25,16,59,11.40
2015,04,25,17,00,11.40
2015,04,25,17,01,11.30
2015,04,25,17,02,11.30
2015,04,25,17,03,11.40
2015,04,25,17,04,11.50
2015,04,25,17,05,11.50
2015,04,25,17,06,11.60
2015,04,25,17,07,11.60
2015,04,25,17,08,11.60
2015,04,25,17,09,11.70
2015,04,25,17,10,11.70
2015,04,25,17,11,11.70
2015,04,25,17,12,11.70
2015,04,25,17,13,11.70
2015,04,25,17,14,11.70
2015,04,25,17,15,11.70
2015,04,25,17,16,11.70
2015,04,25,17,17,11.60
2015,04,25,17,18,11.50
2015,04,25,17,19,11.50
2015,04,25,17,20,11.40
2015,04,25,17,21,11.40
2015,04,25,17,22,11.40
2015,04,25,17,23,11.40
2015,04,25,17,24,11.40
2015,04,25,17,25,11.40
2015,04,25,17,26,11.40
2015,04,25,17,27,11.40
2015,04,25,17,28,11.40
2015,04,25,17,29,11.40
2015,04,25,17,30,11.40
2015,04,25,17,31,11.40
2015,04,25,17,32,11.40
2015,04,25,17,33,11.40
2015,04,25,17,34,11.40
2015,04,25,17,35,11.50
2015,04,25,17,36,11.50
2015,04,25,17,37,11.50
2015,04,25,17,38,11.60
2015,04,25,17,39,11.70
2015,04,25,17,40,11.70
2015,04,25,17,41,11.70
2015,04,25,17,42,11.60
2015,04,25,17,43,11.60
2015,04,25,17,44,11.60
2015,04,25,17,45,11.50
2015,04,25,17,46,11.60
2015,04,25,17,47,11.60
2015,04,25,17,48,11.60
2015,04,25,17,49,11.50
2015,04,25,17,50,11.50
2015,04,25,17,51,11.50
2015,04,25,17,52,11.60
2015,04,25,17,53,11.50
2015,04,25,17,54,11.60